Previsão horária em Abakaliki

Hoje, 12 Abril, Segunda-feira

Tempo Temperatura Precipitação Vento Pressão Humidade
00:00 +29°C° 0 mm 3 m/s 751 mmHg 73%
01:00 +29°C° 0 mm 3 m/s 752 mmHg 77%
02:00 +29°C° 0 mm 3 m/s 751 mmHg 78%
03:00 +28°C° 0 mm 3 m/s 751 mmHg 79%
04:00 +28°C° 0 mm 3 m/s 750 mmHg 80%
05:00 +28°C° 0 mm 3 m/s 750 mmHg 81%
06:00 +28°C° 0 mm 2 m/s 751 mmHg 82%
07:00 +28°C° 0 mm 2 m/s 751 mmHg 82%
08:00 +30°C° 0 mm 3 m/s 751 mmHg 72%
09:00 +33°C° 0 mm 3 m/s 751 mmHg 61%
10:00 +35°C° 0 mm 4 m/s 752 mmHg 50%
11:00 +37°C° 0 mm 3 m/s 751 mmHg 44%
12:00 +39°C° 0 mm 3 m/s 750 mmHg 38%
13:00 +40°C° 0 mm 2 m/s 750 mmHg 32%
14:00 +41°C° 0 mm 2 m/s 749 mmHg 31%
15:00 +41°C° 0 mm 2 m/s 748 mmHg 30%
16:00 +41°C° 0 mm 2 m/s 747 mmHg 28%
17:00 +40°C° 0.1 mm 2 m/s 748 mmHg 33%
18:00 +38°C° 0.1 mm 3 m/s 748 mmHg 37%
19:00 +36°C° 0.1 mm 4 m/s 748 mmHg 41%
20:00 +34°C° 0.9 mm 4 m/s 749 mmHg 52%
21:00 +32°C° 0.9 mm 4 m/s 750 mmHg 63%
22:00 +29°C° 0.9 mm 4 m/s 751 mmHg 75%
23:00 +29°C° 0 mm 4 m/s 751 mmHg 75%

Amanhã, 13 Abril, Terça-feira

Tempo Temperatura Precipitação Vento Pressão Humidade
00:00 +29°C° 0 mm 3 m/s 751 mmHg 76%
01:00 +28°C° 0 mm 3 m/s 751 mmHg 76%
02:00 +28°C° 0 mm 3 m/s 750 mmHg 78%
03:00 +28°C° 0 mm 3 m/s 750 mmHg 80%
04:00 +28°C° 0 mm 3 m/s 750 mmHg 81%
05:00 +28°C° 0 mm 3 m/s 750 mmHg 82%
06:00 +28°C° 0 mm 3 m/s 751 mmHg 82%
07:00 +28°C° 0 mm 2 m/s 751 mmHg 83%
08:00 +29°C° 0 mm 3 m/s 752 mmHg 76%
09:00 +31°C° 0 mm 3 m/s 752 mmHg 69%
10:00 +33°C° 0 mm 4 m/s 753 mmHg 62%
11:00 +35°C° 0 mm 4 m/s 752 mmHg 55%
12:00 +37°C° 0 mm 4 m/s 752 mmHg 47%
13:00 +39°C° 0 mm 3 m/s 751 mmHg 40%
14:00 +40°C° 0.1 mm 4 m/s 750 mmHg 39%
15:00 +40°C° 0.1 mm 4 m/s 749 mmHg 38%
16:00 +40°C° 0.1 mm 5 m/s 749 mmHg 38%
17:00 +36°C° 2.9 mm 5 m/s 749 mmHg 50%
18:00 +32°C° 2.9 mm 5 m/s 749 mmHg 62%
19:00 +27°C° 2.9 mm 5 m/s 749 mmHg 75%
20:00 +27°C° 0.6 mm 5 m/s 750 mmHg 76%
21:00 +27°C° 0.6 mm 4 m/s 751 mmHg 77%
22:00 +27°C° 0.6 mm 4 m/s 753 mmHg 78%
23:00 +27°C° 0 mm 4 m/s 752 mmHg 77%

Depois de amanhã, 14 Abril, Quarta-feira

Tempo Temperatura Precipitação Vento Pressão Humidade
00:00 +27°C° 0 mm 4 m/s 752 mmHg 76%
01:00 +27°C° 0 mm 4 m/s 751 mmHg 75%
02:00 +27°C° 0 mm 3 m/s 751 mmHg 77%
03:00 +26°C° 0 mm 3 m/s 751 mmHg 79%
04:00 +26°C° 0 mm 2 m/s 750 mmHg 80%
05:00 +26°C° 0 mm 2 m/s 751 mmHg 80%
06:00 +26°C° 0 mm 1 m/s 751 mmHg 79%
07:00 +27°C° 0 mm 1 m/s 752 mmHg 79%
08:00 +28°C° 0 mm 2 m/s 752 mmHg 72%
09:00 +30°C° 0 mm 3 m/s 753 mmHg 65%
10:00 +32°C° 0 mm 4 m/s 754 mmHg 58%
11:00 +34°C° 0 mm 4 m/s 753 mmHg 53%
12:00 +35°C° 0 mm 4 m/s 752 mmHg 48%
13:00 +37°C° 0 mm 4 m/s 751 mmHg 43%
14:00 +37°C° 0 mm 4 m/s 750 mmHg 41%
15:00 +38°C° 0 mm 4 m/s 750 mmHg 40%
16:00 +38°C° 0 mm 4 m/s 749 mmHg 38%
17:00 +36°C° 0 mm 4 m/s 749 mmHg 43%
18:00 +35°C° 0 mm 4 m/s 750 mmHg 47%
19:00 +34°C° 0 mm 5 m/s 750 mmHg 52%
20:00 +33°C° 0.1 mm 4 m/s 751 mmHg 56%
21:00 +32°C° 0.1 mm 4 m/s 751 mmHg 60%
22:00 +30°C° 0.1 mm 3 m/s 752 mmHg 64%
23:00 +29°C° 0.1 mm 3 m/s 752 mmHg 67%

15 Abril, Quinta-feira

Tempo Temperatura Precipitação Vento Pressão Humidade
00:00 +29°C° 0.1 mm 3 m/s 751 mmHg 69%
01:00 +28°C° 0.1 mm 3 m/s 751 mmHg 71%
02:00 +28°C° 0 mm 3 m/s 751 mmHg 74%
03:00 +27°C° 0 mm 2 m/s 750 mmHg 76%
04:00 +27°C° 0 mm 1 m/s 750 mmHg 78%
05:00 +27°C° 0 mm 1 m/s 750 mmHg 78%
06:00 +27°C° 0 mm 1 m/s 751 mmHg 77%
07:00 +27°C° 0 mm 1 m/s 751 mmHg 77%
08:00 +29°C° 0 mm 2 m/s 751 mmHg 70%
09:00 +30°C° 0 mm 2 m/s 752 mmHg 64%
10:00 +32°C° 0 mm 2 m/s 752 mmHg 57%
11:00 +34°C° 0 mm 2 m/s 751 mmHg 52%
12:00 +36°C° 0 mm 2 m/s 751 mmHg 48%
13:00 +37°C° 0 mm 2 m/s 750 mmHg 43%
14:00 +37°C° 0 mm 2 m/s 749 mmHg 41%
15:00 +38°C° 0 mm 2 m/s 748 mmHg 38%
16:00 +39°C° 0 mm 2 m/s 748 mmHg 36%
17:00 +37°C° 0 mm 2 m/s 748 mmHg 39%
18:00 +36°C° 0 mm 2 m/s 748 mmHg 42%
19:00 +35°C° 0 mm 2 m/s 748 mmHg 46%
20:00 +34°C° 0 mm 3 m/s 749 mmHg 49%
21:00 +33°C° 0 mm 3 m/s 749 mmHg 52%
22:00 +33°C° 0 mm 3 m/s 749 mmHg 55%
23:00 +32°C° 0 mm 4 m/s 749 mmHg 61%

16 Abril, Sexta-feira

Tempo Temperatura Precipitação Vento Pressão Humidade
00:00 +30°C° 0 mm 4 m/s 749 mmHg 67%
01:00 +29°C° 0 mm 5 m/s 749 mmHg 72%
02:00 +29°C° 0 mm 4 m/s 749 mmHg 75%
03:00 +28°C° 0 mm 4 m/s 749 mmHg 77%
04:00 +28°C° 0 mm 3 m/s 749 mmHg 79%
05:00 +28°C° 0 mm 3 m/s 750 mmHg 80%
06:00 +28°C° 0 mm 3 m/s 750 mmHg 80%
07:00 +28°C° 0 mm 3 m/s 751 mmHg 81%
08:00 +30°C° 0 mm 3 m/s 751 mmHg 73%
09:00 +33°C° 0 mm 4 m/s 751 mmHg 64%
10:00 +35°C° 0 mm 4 m/s 752 mmHg 56%
11:00 +36°C° 0 mm 4 m/s 751 mmHg 50%
12:00 +38°C° 0 mm 4 m/s 750 mmHg 45%
13:00 +39°C° 0 mm 3 m/s 749 mmHg 39%
14:00 +38°C° 0 mm 4 m/s 749 mmHg 43%
15:00 +37°C° 0 mm 5 m/s 748 mmHg 46%
16:00 +36°C° 0 mm 5 m/s 748 mmHg 49%
17:00 +35°C° 0 mm 5 m/s 748 mmHg 52%
18:00 +35°C° 0 mm 6 m/s 748 mmHg 54%
19:00 +34°C° 0 mm 6 m/s 748 mmHg 56%
20:00 +33°C° 0.5 mm 5 m/s 749 mmHg 63%
21:00 +30°C° 0.5 mm 5 m/s 750 mmHg 70%
22:00 +29°C° 0.5 mm 4 m/s 751 mmHg 76%
23:00 +28°C° 0 mm 4 m/s 751 mmHg 77%

17 Abril, Sábado

Tempo Temperatura Precipitação Vento Pressão Humidade
00:00 +28°C° 0 mm 4 m/s 750 mmHg 78%
01:00 +28°C° 0 mm 3 m/s 750 mmHg 78%
02:00 +28°C° 0 mm 3 m/s 749 mmHg 79%
03:00 +28°C° 0 mm 3 m/s 749 mmHg 80%
04:00 +28°C° 0 mm 3 m/s 749 mmHg 80%
05:00 +27°C° 0 mm 3 m/s 750 mmHg 80%
06:00 +27°C° 0 mm 3 m/s 750 mmHg 81%
07:00 +27°C° 0 mm 3 m/s 751 mmHg 81%
08:00 +29°C° 0 mm 3 m/s 751 mmHg 73%
09:00 +31°C° 0 mm 3 m/s 751 mmHg 66%
10:00 +33°C° 0 mm 3 m/s 752 mmHg 59%
11:00 +35°C° 0 mm 3 m/s 751 mmHg 53%
12:00 +37°C° 0 mm 3 m/s 751 mmHg 46%
13:00 +38°C° 0 mm 3 m/s 750 mmHg 40%
14:00 +38°C° 0 mm 3 m/s 750 mmHg 41%
15:00 +37°C° 0 mm 4 m/s 749 mmHg 43%
16:00 +37°C° 0 mm 4 m/s 748 mmHg 44%
17:00 +35°C° 0.3 mm 4 m/s 749 mmHg 51%
18:00 +34°C° 0.3 mm 4 m/s 749 mmHg 58%
19:00 +32°C° 0.3 mm 4 m/s 749 mmHg 65%
20:00 +32°C° 0 mm 5 m/s 750 mmHg 69%
21:00 +30°C° 0 mm 5 m/s 751 mmHg 72%
22:00 +29°C° 0 mm 5 m/s 751 mmHg 76%
23:00 +29°C° 0 mm 4 m/s 751 mmHg 78%
Mostrar mais